Accueil
METAR-TAF:

METAR-TAF

Aéroports :

Morlaix, France

Aéroport de Morlaix Ploujean

latitude: 48-36N, longitude: 3-49W, altitude: 84 m

Observation

Le bulletin a été fait il y a 40 minutes, à 19:00 UTC
Vent 9 kt de est, variant entre nord-est et est/sud-est
Température 18°C
Humidité 77%
Pression 1023 hPa
Visibilité 10 km ou plus
pas de nuages en-dessous de 1500 mètres et pas de cumulonimbus.

METAR: LFRU 241900Z AUTO 08009KT 050V110 CAVOK 18/14 Q1023

Heure: 21:40 (19:40 UTC)


TAF: absent

Observations et prévisions météorologiques de plus de 4000 aéroports (messages METAR et TAF).

Les stations disponibles sont représentées par des disques jaunes et rouges sur la carte.

Passer la souris dessus pour voir le nom de la station.

Cliquer dessus pour voir les observations et prévisions météorologiques.

Pour changer de carte: cliquez sur les boutons verts avec une croix noire pour zoomer, sur le bouton vert avec un tiret pour effectuer un zoom arrière, ou sur les flèches vertes pour les cartes adjacentes.


METAR-TAF: